QPF
0.00 0.00 0.01 0.01 0.00 0.00 0.00 0.00 0.00 0.00 0.00 0.00 0.00 0.00 0.00 0.00 0.00 0.00 0.00 0.00 0.00 0.00 0.00 0.00 0.00 0.00 0.00 0.00 0.00 0.00 0.00 0.00 0.00 0.00 0.00 0.00 0.00 0.00 0.00 0.00 0.00 0.00 0.00 0.00 0.00
0.00 0.00 0.00 0.00 0.01 0.01 0.00 0.00 0.00 0.00 0.00 0.00 0.00 0.00 0.00 0.00 0.00 0.00 0.00 0.00 0.00 0.00 0.00 0.00 0.00 0.00 0.00 0.00 0.00 0.00 0.00 0.00 0.00 0.00 0.00 0.00 0.00 0.00 0.00 0.00 0.00 0.00 0.00 0.00 0.00
0.00 0.00 0.00 0.00 0.00 0.01 0.01 0.00 0.00 0.00 0.00 0.00 0.00 0.00 0.00 0.00 0.00 0.00 0.00 0.00 0.00 0.00 0.00 0.00 0.00 0.00 0.00 0.00 0.00 0.00 0.00 0.00 0.00 0.00 0.00 0.00 0.00 0.00 0.00 0.00 0.00 0.00 0.00 0.00 0.00
0.00 0.01 0.01 0.01 0.00 0.00 0.00 0.00 0.00 0.00 0.00 0.00 0.00 0.00 0.00 0.00 0.00 0.00 0.00 0.00 0.00 0.00 0.00 0.00 0.00 0.00 0.00 0.00 0.00 0.00 0.00 0.00 0.00 0.00 0.00 0.00 0.00 0.00 0.00 0.00 0.00 0.00 0.00 0.00 0.00
0.01 0.01 0.01 0.01 0.01 0.00 0.00 0.00 0.00 0.00 0.00 0.00 0.00 0.00 0.00 0.00 0.00 0.00 0.00 0.00 0.00 0.00 0.00 0.00 0.00 0.00 0.00 0.00 0.00 0.00 0.00 0.00 0.00 0.00 0.00 0.00 0.00 0.00 0.00 0.00 0.00 0.00 0.00 0.00 0.00
0.01 0.01 0.01 0.01 0.01 0.00 0.00 0.00 0.00 0.00 0.01 0.00 0.00 0.00 0.00 0.00 0.00 0.00 0.00 0.00 0.00 0.00 0.00 0.00 0.00 0.00 0.00 0.00 0.00 0.00 0.00 0.00 0.00 0.00 0.00 0.00 0.00 0.00 0.00 0.00 0.00 0.00 0.00 0.00 0.00
0.01 0.01 0.01 0.01 0.00 0.00 0.00 0.00 0.00 0.00 0.00 0.02 0.01 0.00 0.00 0.00 0.00 0.00 0.00 0.00 0.00 0.00 0.00 0.00 0.00 0.00 0.00 0.00 0.00 0.00 0.00 0.00 0.00 0.00 0.00 0.00 0.00 0.00 0.00 0.00 0.00 0.00 0.00 0.00 0.00
0.02 0.01 0.01 0.01 0.00 0.00 0.00 0.00 0.00 0.00 0.00 0.03 0.04 0.01 0.00 0.00 0.00 0.00 0.00 0.00 0.00 0.00 0.00 0.00 0.00 0.01 0.01 0.01 0.00 0.00 0.00 0.00 0.00 0.00 0.00 0.00 0.00 0.00 0.00 0.00 0.00 0.00 0.00 0.00 0.00
0.02 0.02 0.02 0.01 0.01 0.00 0.01 0.01 0.00 0.00 0.00 0.03 0.02 0.00 0.00 0.00 0.00 0.00 0.00 0.00 0.00 0.00 0.00 0.00 0.00 0.02 0.02 0.02 0.01 0.00 0.00 0.00 0.00 0.00 0.00 0.00 0.00 0.00 0.00 0.00 0.00 0.00 0.00 0.00 0.00
0.01 0.02 0.02 0.02 0.02 0.00 0.01 0.02 0.01 0.01 0.02 0.03 0.01 0.00 0.00 0.00 0.00 0.00 0.00 0.00 0.00 0.00 0.01 0.01 0.01 0.01 0.01 0.01 0.00 0.00 0.00 0.00 0.00 0.00 0.00 0.00 0.00 0.00 0.00 0.00 0.00 0.00 0.00 0.00 0.00
0.01 0.01 0.02 0.02 0.02 0.02 0.03 0.02 0.00 0.00 0.02 0.00 0.01 0.00 0.00 0.00 0.00 0.00 0.00 0.00 0.01 0.01 0.01 0.00 0.01 0.00 0.00 0.00 0.00 0.00 0.00 0.00 0.00 0.00 0.00 0.00 0.00 0.00 0.00 0.00 0.00 0.00 0.00 0.00 0.00
0.02 0.03 0.02 0.02 0.01 0.03 0.02 0.00 0.00 0.00 0.00 0.00 0.00 0.00 0.00 0.00 0.00 0.00 0.00 0.01 0.02 0.01 0.01 0.01 0.01 0.00 0.00 0.00 0.00 0.00 0.00 0.00 0.00 0.00 0.00 0.00 0.00 0.00 0.00 0.00 0.00 0.00 0.00 0.00 0.00
0.02 0.02 0.04 0.03 0.02 0.03 0.01 0.00 0.00 0.00 0.00 0.00 0.00 0.00 0.00 0.00 0.00 0.00 0.00 0.00 0.00 0.00 0.00 0.00 0.00 0.00 0.00 0.00 0.00 0.00 0.00 0.00 0.00 0.00 0.00 0.00 0.00 0.00 0.00 0.00 0.00 0.00 0.00 0.00 0.00
0.04 0.04 0.05 0.05 0.02 0.00 0.01 0.02 0.02 0.00 0.01 0.00 0.00 0.00 0.00 0.00 0.00 0.00 0.00 0.00 0.00 0.00 0.01 0.00 0.00 0.00 0.00 0.00 0.00 0.00 0.00 0.00 0.00 0.00 0.00 0.00 0.00 0.00 0.00 0.00 0.00 0.00 0.00 0.00 0.00
0.04 0.06 0.07 0.04 0.00 0.00 0.00 0.00 0.04 0.01 0.01 0.00 0.00 0.00 0.00 0.00 0.00 0.00 0.01 0.00 0.00 0.00 0.01 0.00 0.00 0.00 0.00 0.00 0.00 0.00 0.00 0.00 0.00 0.00 0.00 0.00 0.00 0.00 0.00 0.00 0.00 0.00 0.00 0.00 0.00
0.04 0.05 0.08 0.03 0.00 0.00 0.00 0.04 0.04 0.01 0.00 0.00 0.00 0.00 0.00 0.00 0.00 0.00 0.01 0.01 0.00 0.01 0.00 0.00 0.00 0.00 0.00 0.00 0.00 0.00 0.01 0.01 0.01 0.01 0.01 0.00 0.00 0.00 0.00 0.00 0.00 0.00 0.00 0.00 0.00
0.03 0.04 0.05 0.01 0.00 0.00 0.02 0.05 0.02 0.00 0.00 0.00 0.00 0.01 0.00 0.00 0.00 0.00 0.01 0.01 0.00 0.01 0.01 0.00 0.00 0.00 0.00 0.00 0.01 0.01 0.02 0.02 0.01 0.01 0.00 0.00 0.00 0.00 0.00 0.00 0.00 0.00 0.00 0.00 0.00
0.03 0.05 0.06 0.02 0.00 0.02 0.03 0.01 0.00 0.00 0.00 0.00 0.00 0.00 0.00 0.00 0.00 0.00 0.01 0.00 0.00 0.00 0.00 0.00 0.00 0.00 0.00 0.00 0.00 0.00 0.00 0.00 0.00 0.00 0.00 0.00 0.00 0.00 0.00 0.00 0.00 0.00 0.00 0.00 0.00
0.06 0.06 0.04 0.02 0.01 0.02 0.01 0.00 0.00 0.00 0.00 0.00 0.00 0.00 0.00 0.00 0.00 0.00 0.01 0.00 0.00 0.00 0.00 0.00 0.00 0.00 0.00 0.00 0.00 0.00 0.01 0.00 0.02 0.00 0.01 0.00 0.00 0.00 0.00 0.00 0.00 0.00 0.00 0.00 0.00
0.06 0.02 0.01 0.02 0.02 0.02 0.00 0.00 0.00 0.00 0.00 0.00 0.00 0.00 0.00 0.00 0.01 0.01 0.01 0.00 0.00 0.00 0.00 0.00 0.00 0.00 0.00 0.00 0.01 0.00 0.01 0.03 0.06 0.04 0.01 0.00 0.00 0.00 0.00 0.00 0.00 0.00 0.00 0.00 0.00
0.03 0.01 0.00 0.01 0.02 0.01 0.01 0.01 0.00 0.00 0.00 0.00 0.00 0.00 0.00 0.00 0.00 0.01 0.01 0.00 0.00 0.00 0.00 0.00 0.00 0.00 0.00 0.00 0.00 0.00 0.01 0.01 0.01 0.01 0.02 0.00 0.00 0.00 0.00 0.00 0.00 0.00 0.00 0.00 0.00
0.00 0.00 0.00 0.01 0.01 0.00 0.01 0.00 0.00 0.00 0.00 0.01 0.00 0.00 0.00 0.00 0.01 0.00 0.00 0.00 0.00 0.00 0.01 0.01 0.01 0.00 0.00 0.00 0.00 0.00 0.00 0.00 0.01 0.00 0.01 0.01 0.00 0.00 0.00 0.00 0.00 0.00 0.00 0.00 0.00
0.00 0.00 0.02 0.01 0.00 0.01 0.00 0.00 0.00 0.00 0.00 0.00 0.00 0.00 0.00 0.02 0.03 0.00 0.00 0.00 0.00 0.00 0.02 0.03 0.03 0.01 0.00 0.00 0.00 0.01 0.00 0.00 0.00 0.01 0.00 0.01 0.00 0.00 0.00 0.00 0.00 0.00 0.00 0.00 0.00
0.00 0.01 0.03 0.02 0.00 0.00 0.00 0.00 0.00 0.00 0.00 0.01 0.00 0.01 0.01 0.01 0.02 0.02 0.01 0.00 0.00 0.02 0.05 0.06 0.04 0.01 0.00 0.00 0.00 0.00 0.00 0.00 0.01 0.01 0.00 0.00 0.00 0.00 0.00 0.00 0.00 0.00 0.00 0.00 0.00
0.00 0.00 0.01 0.02 0.00 0.00 0.00 0.00 0.00 0.00 0.00 0.00 0.01 0.01 0.00 0.00 0.01 0.01 0.01 0.03 0.02 0.03 0.07 0.10 0.05 0.01 0.02 0.01 0.00 0.00 0.00 0.00 0.00 0.00 0.01 0.00 0.00 0.01 0.00 0.00 0.00 0.00 0.00 0.00 0.00
0.00 0.00 0.00 0.00 0.00 0.00 0.00 0.00 0.00 0.00 0.00 0.00 0.00 0.00 0.00 0.00 0.01 0.00 0.01 0.01 0.01 0.02 0.03 0.07 0.06 0.02 0.01 0.01 0.01 0.01 0.00 0.00 0.00 0.00 0.00 0.00 0.00 0.00 0.00 0.00 0.00 0.00 0.00 0.00 0.00
0.00 0.00 0.01 0.00 0.00 0.00 0.00 0.00 0.00 0.00 0.00 0.00 0.00 0.00 0.01 0.00 0.00 0.02 0.03 0.02 0.02 0.02 0.01 0.02 0.01 0.03 0.01 0.00 0.01 0.02 0.00 0.00 0.00 0.00 0.00 0.00 0.00 0.01 0.01 0.00 0.00 0.00 0.00 0.00 0.00
MSLP
1018.46 1018.61 1018.66 1019.20 1019.33 1019.38 1019.67 1019.90 1019.97 1020.05 1020.15 1020.24 1020.26 1020.32 1020.32 1020.32 1020.21 1020.11 1019.95 1019.15 1019.04 1018.89 1018.70 1018.64 1018.49 1018.37 1018.10 1018.48 1018.55 1019.02 1020.10 1020.21 1019.52 1019.01 1018.51 1018.08 1017.78 1017.40 1017.25 1017.14 1017.02 1017.32 1017.63 1017.71 1017.57
1018.05 1018.55 1018.76 1018.90 1018.91 1019.20 1019.49 1019.71 1019.96 1020.03 1020.16 1020.25 1020.27 1020.37 1020.31 1020.26 1020.31 1020.07 1019.32 1018.84 1018.82 1019.07 1019.19 1019.40 1019.45 1019.27 1019.29 1019.25 1019.28 1019.62 1020.53 1019.96 1019.26 1018.78 1018.55 1018.18 1018.08 1018.03 1017.85 1017.75 1017.51 1017.60 1017.77 1017.85 1017.84
1017.97 1018.31 1018.44 1018.54 1018.85 1019.10 1019.36 1019.55 1019.80 1019.94 1020.17 1020.28 1020.31 1020.41 1020.36 1020.31 1020.24 1019.28 1018.81 1018.67 1018.67 1019.15 1019.37 1019.48 1019.67 1019.86 1019.85 1019.67 1019.66 1019.88 1020.04 1019.69 1019.20 1018.76 1018.55 1018.45 1018.25 1018.24 1018.26 1018.08 1017.90 1018.06 1018.07 1018.33 1018.40
1017.36 1017.90 1018.18 1018.25 1018.55 1019.00 1019.14 1019.42 1019.54 1019.79 1020.07 1020.24 1020.34 1020.40 1020.38 1020.38 1020.16 1018.78 1018.71 1018.34 1018.52 1019.08 1019.46 1019.61 1019.90 1020.20 1020.18 1020.10 1019.85 1020.14 1019.76 1019.56 1019.30 1018.87 1018.70 1018.68 1018.47 1018.55 1018.48 1018.12 1017.85 1017.97 1018.13 1018.41 1018.65
1016.95 1017.38 1017.67 1017.97 1018.51 1018.81 1019.16 1019.27 1019.32 1019.49 1019.88 1020.20 1020.29 1020.31 1020.44 1020.39 1019.43 1018.76 1018.71 1018.47 1018.74 1019.19 1019.62 1019.97 1020.22 1020.32 1020.39 1020.29 1020.18 1020.25 1020.03 1019.66 1019.35 1019.21 1018.95 1018.76 1018.76 1018.85 1018.36 1018.03 1017.91 1017.99 1018.08 1018.33 1018.39
1016.39 1016.97 1017.50 1017.81 1018.27 1018.62 1018.98 1019.20 1019.19 1019.30 1019.67 1020.05 1020.23 1020.34 1020.53 1020.22 1018.85 1018.73 1018.93 1018.98 1019.24 1019.53 1019.79 1020.00 1020.15 1020.30 1020.45 1020.48 1020.55 1020.43 1020.30 1020.03 1019.53 1019.19 1019.12 1019.02 1018.89 1018.85 1018.14 1017.96 1018.02 1018.11 1018.04 1018.05 1018.08
1016.21 1016.71 1017.35 1017.66 1017.99 1018.49 1018.75 1018.88 1019.14 1019.20 1019.49 1019.82 1020.08 1020.35 1020.46 1019.66 1018.87 1019.05 1019.12 1019.30 1019.27 1019.47 1019.79 1019.85 1020.10 1020.42 1020.54 1020.54 1020.55 1020.43 1020.62 1020.35 1019.97 1019.47 1019.23 1019.05 1019.12 1018.86 1018.30 1018.15 1018.22 1018.22 1018.22 1017.96 1017.74
1016.00 1016.46 1016.97 1017.28 1017.79 1018.27 1018.71 1018.66 1018.91 1019.07 1019.50 1019.67 1020.01 1020.53 1020.25 1019.13 1019.06 1019.31 1019.23 1019.24 1019.10 1019.41 1019.70 1019.70 1019.97 1020.29 1020.50 1020.58 1020.75 1020.83 1021.07 1021.02 1020.19 1019.81 1019.32 1019.49 1018.67 1018.80 1018.23 1018.28 1018.29 1018.25 1018.05 1018.01 1017.53
1015.73 1016.14 1016.55 1016.97 1017.58 1018.06 1018.55 1018.72 1018.87 1019.01 1019.55 1019.69 1020.27 1020.53 1020.15 1019.05 1019.21 1018.64 1019.03 1019.28 1019.24 1019.50 1019.64 1019.67 1020.01 1020.29 1020.64 1020.92 1021.45 1021.46 1021.41 1021.44 1021.02 1020.07 1019.95 1019.84 1018.97 1018.62 1018.35 1018.59 1018.74 1018.30 1018.30 1017.96 1017.24
1015.50 1015.95 1016.49 1016.78 1017.47 1017.85 1018.20 1018.51 1018.94 1019.04 1019.87 1019.69 1020.21 1020.63 1019.74 1018.69 1018.38 1018.49 1018.55 1018.98 1019.35 1019.64 1019.95 1020.21 1020.60 1020.74 1020.75 1021.04 1020.77 1021.43 1021.74 1021.53 1021.60 1020.74 1020.29 1020.08 1019.16 1019.23 1018.89 1018.76 1018.76 1018.47 1018.17 1017.65 1016.93
1015.02 1015.55 1015.94 1016.44 1016.96 1017.40 1018.10 1018.91 1019.55 1020.00 1019.72 1019.14 1018.90 1018.70 1018.04 1018.35 1018.23 1018.39 1018.62 1019.19 1019.59 1019.85 1020.31 1020.61 1020.96 1020.44 1020.80 1020.99 1021.25 1021.57 1021.85 1022.11 1021.93 1021.34 1021.18 1020.40 1019.38 1019.18 1018.73 1018.75 1018.59 1018.25 1017.67 1017.06 1016.32
1014.56 1015.16 1015.60 1016.04 1016.67 1017.08 1017.89 1018.43 1018.61 1018.70 1019.08 1019.00 1019.04 1018.48 1018.11 1018.15 1018.53 1018.53 1018.65 1019.40 1019.74 1020.03 1020.48 1021.25 1020.42 1020.62 1020.70 1020.89 1021.24 1021.63 1021.98 1022.14 1022.31 1021.88 1021.62 1020.97 1019.02 1018.95 1018.78 1018.36 1018.08 1017.64 1017.09 1016.43 1015.73
1014.07 1014.66 1015.20 1015.89 1016.45 1017.25 1017.91 1018.27 1018.24 1018.35 1018.78 1018.72 1018.65 1018.35 1018.20 1018.42 1018.17 1018.50 1018.66 1019.15 1019.60 1020.32 1020.61 1020.65 1020.26 1020.21 1020.91 1021.27 1021.70 1021.88 1022.24 1022.64 1022.67 1022.29 1021.59 1021.31 1018.55 1018.43 1017.80 1017.40 1016.88 1016.81 1016.20 1015.70 1015.45
1013.69 1014.31 1014.82 1015.70 1017.02 1017.19 1017.96 1018.34 1018.27 1018.14 1019.10 1018.53 1018.10 1017.01 1017.66 1018.16 1018.16 1017.88 1018.15 1018.72 1019.78 1020.12 1021.01 1020.98 1020.40 1020.60 1021.03 1021.30 1021.85 1021.91 1022.16 1022.49 1022.92 1022.99 1022.33 1021.53 1019.03 1018.16 1017.69 1016.81 1016.55 1016.26 1015.90 1015.25 1014.87
1013.23 1013.86 1014.46 1015.21 1016.07 1016.70 1017.40 1018.01 1018.31 1018.85 1019.02 1016.51 1016.60 1015.74 1016.27 1017.26 1017.47 1018.08 1018.03 1018.61 1019.24 1019.83 1020.52 1020.13 1020.04 1020.38 1020.78 1020.91 1021.80 1021.77 1021.93 1022.37 1022.66 1022.87 1022.64 1022.01 1021.76 1016.83 1017.08 1016.73 1015.93 1015.79 1015.38 1015.04 1015.03
1012.77 1013.49 1014.16 1015.24 1015.81 1016.29 1016.82 1017.72 1018.84 1019.49 1017.47 1016.40 1015.99 1015.59 1016.50 1016.74 1017.38 1018.12 1018.42 1018.53 1019.06 1019.95 1020.08 1020.19 1020.16 1020.25 1020.26 1020.72 1021.10 1021.56 1022.22 1022.49 1022.83 1022.98 1022.31 1021.48 1021.58 1017.60 1017.06 1015.97 1015.78 1015.59 1015.48 1015.58 1015.61
1012.38 1013.10 1013.94 1014.83 1015.41 1015.85 1016.78 1018.06 1019.11 1018.03 1016.74 1016.48 1015.77 1015.77 1016.08 1016.44 1017.13 1017.26 1018.28 1018.39 1018.49 1019.59 1019.37 1020.13 1020.23 1020.30 1020.34 1020.88 1021.12 1021.52 1022.31 1022.47 1022.84 1022.71 1021.46 1020.59 1020.58 1017.64 1016.46 1015.82 1015.76 1015.69 1015.86 1016.65 1016.96
1011.96 1012.79 1013.39 1014.32 1015.04 1015.61 1016.82 1017.76 1017.16 1016.20 1016.25 1015.68 1015.47 1015.74 1015.90 1016.30 1016.36 1016.87 1017.56 1017.66 1017.84 1018.10 1018.64 1019.47 1019.87 1019.92 1019.76 1019.84 1020.59 1021.05 1021.72 1021.82 1021.86 1022.24 1021.61 1020.77 1019.42 1016.92 1015.80 1015.51 1015.50 1015.73 1016.01 1017.68 1018.55
1011.78 1012.72 1013.38 1014.12 1014.65 1015.65 1016.41 1016.05 1015.32 1015.01 1014.93 1015.48 1015.71 1015.80 1016.05 1015.82 1016.04 1016.76 1016.58 1016.74 1016.77 1017.05 1017.90 1018.75 1018.97 1018.73 1018.99 1019.05 1019.64 1020.42 1020.64 1020.57 1021.50 1022.13 1022.11 1020.60 1018.85 1016.86 1016.02 1015.98 1016.08 1016.81 1017.88 1018.75 1019.51
1011.41 1012.42 1012.85 1013.73 1014.27 1015.32 1015.56 1015.12 1015.15 1014.46 1014.25 1014.78 1015.01 1014.90 1015.08 1015.41 1016.05 1016.25 1016.35 1015.29 1015.89 1016.37 1016.81 1017.54 1018.51 1018.58 1018.82 1019.07 1019.16 1019.11 1019.52 1020.60 1021.27 1021.54 1021.18 1020.17 1019.32 1017.37 1016.49 1016.45 1017.15 1018.22 1019.15 1020.05 1020.78
1011.07 1011.86 1012.06 1013.28 1014.43 1014.58 1013.92 1014.43 1014.87 1014.23 1013.87 1014.45 1014.76 1014.91 1014.88 1015.06 1015.35 1015.65 1015.03 1014.86 1014.89 1015.59 1016.46 1017.17 1017.90 1018.94 1018.95 1018.14 1018.04 1018.95 1019.11 1019.51 1020.16 1020.55 1020.27 1020.11 1018.21 1016.51 1016.61 1017.00 1017.92 1019.14 1020.05 1020.79 1021.65
1010.32 1011.41 1011.63 1012.57 1013.27 1013.05 1013.52 1014.20 1014.04 1014.24 1014.26 1014.37 1014.41 1014.59 1014.76 1014.94 1014.99 1015.20 1014.87 1014.38 1014.07 1014.81 1015.43 1016.36 1017.63 1018.26 1017.95 1017.71 1017.67 1017.65 1017.62 1018.40 1019.03 1019.76 1019.75 1019.21 1017.25 1016.71 1016.60 1017.74 1017.09 1019.07 1020.43 1021.27 1022.13
1010.29 1011.26 1011.62 1011.83 1011.97 1012.71 1013.49 1013.82 1014.06 1014.26 1014.22 1014.38 1014.60 1014.57 1014.58 1014.63 1015.06 1014.75 1014.48 1014.22 1014.21 1014.59 1014.70 1016.07 1016.72 1017.67 1017.72 1018.14 1017.66 1017.34 1017.58 1017.55 1018.01 1018.45 1018.34 1018.83 1017.31 1017.32 1017.51 1018.16 1018.94 1019.46 1020.54 1020.90 1021.89
1010.08 1010.80 1011.13 1011.55 1012.19 1012.69 1013.27 1013.70 1014.11 1014.11 1014.07 1014.24 1014.25 1014.63 1014.96 1014.60 1014.23 1014.14 1014.20 1014.24 1014.11 1014.30 1014.70 1015.36 1015.73 1015.72 1015.58 1015.74 1016.16 1016.76 1016.60 1016.78 1017.27 1017.48 1016.68 1016.86 1017.16 1017.90 1018.27 1018.72 1019.66 1020.46 1021.18 1021.99 1022.56
1009.60 1010.25 1010.36 1010.90 1012.01 1012.60 1013.20 1013.09 1013.58 1014.02 1014.19 1014.27 1014.47 1014.39 1014.58 1014.76 1014.33 1014.17 1014.16 1014.36 1014.35 1014.28 1014.56 1015.17 1014.68 1015.59 1015.47 1015.56 1015.36 1015.07 1015.25 1015.74 1015.96 1015.36 1016.46 1015.79 1016.56 1017.11 1018.24 1018.94 1019.65 1020.47 1021.23 1021.94 1023.03
1009.22 1009.99 1010.82 1011.04 1011.63 1012.81 1012.91 1013.08 1013.08 1013.26 1013.63 1014.32 1014.19 1013.79 1014.06 1013.67 1013.48 1013.58 1013.95 1014.15 1014.45 1014.95 1014.68 1015.16 1014.58 1014.86 1014.82 1015.19 1015.16 1015.12 1014.61 1014.46 1014.58 1014.92 1015.48 1015.88 1016.20 1016.41 1017.91 1019.39 1020.55 1021.28 1022.28 1023.22 1023.92
1009.56 1009.91 1010.26 1011.22 1011.91 1012.67 1012.38 1012.70 1012.99 1013.36 1013.33 1013.14 1012.97 1013.55 1013.38 1012.38 1012.53 1012.64 1012.84 1013.25 1013.64 1014.08 1014.57 1015.11 1014.66 1013.81 1013.53 1014.19 1014.91 1014.73 1013.08 1013.78 1013.92 1014.48 1014.73 1015.57 1015.43 1017.08 1018.64 1020.23 1021.63 1022.53 1022.88 1023.95 1024.55
Thickness
5592 5596 5600 5601 5604 5608 5610 5613 5617 5620 5624 5628 5632 5636 5640 5645 5649 5653 5654 5665 5669 5672 5676 5680 5683 5685 5690 5688 5690 5687 5661 5654 5670 5674 5679 5691 5692 5700 5703 5702 5706 5703 5703 5704 5707
5585 5586 5590 5594 5600 5602 5603 5606 5609 5613 5616 5620 5624 5628 5633 5638 5642 5645 5656 5661 5663 5665 5667 5665 5666 5672 5669 5675 5677 5668 5652 5660 5675 5680 5680 5687 5689 5688 5689 5687 5696 5698 5700 5701 5702
5574 5577 5582 5587 5589 5593 5595 5599 5601 5605 5608 5611 5616 5620 5625 5631 5633 5643 5653 5658 5659 5658 5661 5663 5662 5663 5661 5667 5669 5665 5656 5665 5673 5678 5682 5682 5682 5686 5683 5681 5688 5689 5694 5693 5693
5568 5569 5571 5578 5581 5583 5587 5590 5594 5597 5600 5603 5606 5611 5617 5622 5613 5643 5648 5655 5654 5651 5653 5653 5652 5648 5650 5651 5661 5655 5664 5666 5669 5675 5677 5675 5681 5677 5679 5681 5689 5689 5691 5689 5686
5560 5563 5567 5569 5570 5573 5576 5581 5586 5590 5591 5593 5598 5603 5608 5610 5620 5636 5640 5646 5645 5643 5642 5641 5640 5641 5639 5645 5650 5648 5655 5661 5663 5664 5667 5672 5669 5667 5676 5680 5682 5683 5685 5684 5684
5552 5554 5556 5560 5562 5565 5567 5571 5577 5580 5582 5584 5589 5594 5598 5599 5621 5624 5630 5633 5634 5632 5632 5634 5634 5637 5636 5639 5638 5644 5647 5648 5655 5660 5662 5662 5662 5663 5676 5676 5677 5677 5677 5679 5680
5539 5542 5544 5547 5552 5554 5556 5561 5565 5571 5574 5575 5579 5584 5588 5598 5612 5614 5619 5622 5625 5625 5622 5628 5630 5629 5632 5631 5636 5639 5632 5635 5644 5655 5655 5657 5649 5653 5666 5668 5667 5669 5668 5671 5675
5526 5530 5533 5538 5540 5543 5546 5552 5555 5558 5561 5565 5568 5572 5575 5594 5601 5605 5609 5614 5618 5620 5619 5622 5624 5623 5624 5627 5623 5624 5620 5616 5636 5642 5647 5646 5644 5656 5662 5660 5661 5660 5663 5663 5669
5513 5517 5522 5526 5529 5530 5531 5537 5543 5546 5548 5553 5555 5559 5564 5586 5589 5598 5600 5600 5606 5610 5612 5615 5614 5611 5613 5606 5601 5605 5600 5606 5613 5632 5630 5631 5636 5652 5655 5650 5646 5650 5651 5655 5661
5499 5504 5507 5513 5514 5518 5520 5525 5528 5535 5531 5540 5542 5545 5559 5575 5585 5590 5595 5596 5596 5596 5597 5597 5592 5593 5600 5599 5600 5602 5594 5597 5597 5615 5617 5617 5630 5633 5638 5640 5638 5639 5642 5648 5656
5489 5493 5497 5501 5503 5507 5508 5509 5511 5512 5518 5536 5549 5558 5568 5574 5581 5582 5584 5583 5584 5584 5580 5583 5583 5590 5589 5594 5593 5592 5587 5583 5588 5599 5599 5604 5620 5627 5631 5628 5627 5632 5637 5644 5652
5479 5482 5486 5490 5492 5494 5497 5500 5506 5511 5509 5520 5529 5543 5556 5561 5562 5569 5573 5568 5568 5572 5571 5566 5580 5587 5591 5592 5590 5584 5582 5583 5576 5583 5585 5588 5616 5615 5619 5623 5623 5628 5633 5641 5650
5468 5472 5475 5476 5479 5482 5487 5488 5492 5498 5498 5507 5517 5530 5541 5545 5552 5556 5563 5560 5561 5555 5560 5565 5579 5582 5574 5571 5568 5568 5565 5562 5561 5567 5574 5573 5608 5610 5620 5621 5627 5625 5631 5638 5641
5458 5460 5463 5461 5460 5472 5476 5476 5480 5485 5467 5489 5505 5527 5531 5536 5541 5552 5555 5553 5548 5551 5543 5550 5567 5567 5562 5567 5561 5560 5559 5554 5549 5547 5553 5567 5573 5607 5612 5621 5620 5618 5619 5627 5631
5447 5452 5451 5451 5459 5466 5473 5467 5467 5466 5444 5500 5505 5527 5530 5530 5538 5537 5543 5539 5540 5542 5541 5554 5557 5555 5555 5563 5550 5557 5551 5543 5541 5536 5539 5553 5536 5608 5607 5601 5613 5611 5613 5616 5618
5439 5440 5440 5437 5449 5456 5455 5452 5446 5441 5452 5472 5502 5519 5517 5525 5523 5520 5526 5530 5534 5528 5534 5542 5544 5548 5555 5551 5549 5545 5540 5532 5527 5528 5536 5548 5535 5586 5591 5598 5602 5603 5604 5603 5605
5430 5431 5430 5432 5438 5445 5440 5432 5424 5434 5456 5464 5500 5511 5514 5518 5517 5522 5515 5522 5526 5522 5536 5535 5535 5537 5544 5536 5535 5534 5527 5521 5520 5524 5536 5550 5536 5573 5592 5595 5589 5592 5595 5587 5585
5418 5419 5421 5425 5429 5432 5426 5414 5423 5428 5442 5480 5488 5496 5504 5509 5519 5517 5507 5516 5525 5523 5529 5522 5523 5531 5537 5541 5529 5527 5523 5508 5506 5510 5525 5530 5530 5564 5584 5589 5586 5583 5583 5567 5559
5404 5403 5406 5413 5419 5415 5409 5412 5429 5426 5467 5471 5479 5474 5485 5503 5505 5504 5508 5514 5525 5528 5525 5508 5520 5529 5529 5535 5534 5520 5518 5535 5501 5480 5505 5510 5533 5562 5571 5575 5575 5566 5552 5546 5546
5388 5387 5394 5402 5406 5402 5396 5416 5404 5443 5462 5466 5456 5478 5483 5491 5486 5491 5497 5523 5520 5522 5524 5515 5500 5510 5514 5523 5522 5522 5524 5511 5506 5506 5509 5515 5512 5542 5556 5565 5560 5543 5533 5526 5523
5371 5369 5386 5390 5389 5384 5395 5401 5392 5432 5453 5454 5452 5456 5475 5476 5485 5484 5491 5515 5522 5518 5518 5509 5503 5496 5498 5514 5524 5514 5516 5515 5505 5505 5509 5491 5520 5542 5548 5550 5539 5529 5522 5515 5509
5359 5359 5373 5375 5375 5376 5389 5391 5415 5420 5429 5436 5445 5454 5456 5468 5476 5482 5483 5501 5512 5515 5506 5509 5491 5480 5501 5504 5512 5518 5518 5515 5505 5492 5501 5502 5531 5538 5545 5530 5538 5521 5511 5503 5494
5348 5351 5360 5367 5373 5373 5375 5382 5393 5402 5410 5419 5419 5438 5452 5458 5441 5469 5474 5492 5494 5500 5501 5495 5482 5467 5489 5484 5492 5503 5507 5513 5514 5504 5504 5502 5520 5515 5514 5513 5516 5510 5506 5503 5493
5345 5350 5355 5355 5362 5368 5369 5373 5377 5390 5403 5408 5420 5424 5430 5440 5453 5455 5467 5478 5483 5490 5494 5488 5486 5489 5506 5502 5500 5504 5508 5511 5510 5501 5518 5515 5520 5507 5500 5498 5495 5491 5488 5486 5481
5339 5342 5348 5356 5353 5360 5364 5370 5380 5380 5387 5400 5400 5410 5417 5412 5426 5435 5452 5459 5466 5476 5484 5481 5478 5482 5494 5490 5491 5503 5510 5507 5506 5518 5503 5524 5513 5516 5500 5494 5489 5486 5483 5481 5470
5338 5341 5338 5334 5364 5355 5364 5369 5377 5381 5382 5381 5393 5410 5413 5420 5435 5439 5443 5447 5455 5451 5471 5463 5479 5482 5483 5479 5480 5487 5499 5507 5509 5511 5510 5502 5502 5517 5506 5485 5479 5474 5466 5456 5450
5328 5338 5345 5349 5349 5351 5363 5365 5372 5377 5385 5396 5401 5403 5406 5429 5442 5451 5451 5451 5452 5457 5448 5453 5463 5477 5491 5489 5480 5474 5500 5507 5512 5512 5515 5505 5522 5497 5487 5474 5454 5449 5449 5438 5435